Location: Buchloe
(48.0161°N, 10.7316°E)
Time: 03:29:44
(UTC+02:00)

ISS - Pass Details

Date: 13 July 2025
Orbit: 413 x 417 km, 51.6° (Epoch: 12 July)

Event Time Altitude Azimuth Distance (km) Brightness Sun altitude
Rises 23:33:04 0° 281° (WNW) 2,352 0.6 -16.1°
Reaches altitude 10° 23:35:14 10° 289° (WNW) 1,489 -0.3 -16.2°
Maximum altitude 23:38:26 42° 2° (N) 601 -2.5 -16.5°
Drops below altitude 10° 23:41:39 10° 76° (ENE) 1,491 -1.1 -16.7°
Enters shadow 23:42:31 - 79° (E) 1,834 -0.6 -16.7°
